Selinsgrove, PA

1:48 PM EST on November 22, 2019 (GMT -0500)
Penn Valley

Weather History for KSEG - June, 2019

Change the Weather History Date:

Thursday, June 13, 2019

  Actual Average (WUND) Record (WUND)
Temperature  
Mean Temperature 60 °F -  
Max Temperature 64 °F - - (-1)
Min Temperature 55 °F - - (-1)
Degree Days  
Heating Degree Days 6    
Growing Degree Days 10 (Base 50)    
Moisture  
Dew Point 56 °F    
Average Humidity 86    
Maximum Humidity 96    
Minimum Humidity 61    
Precipitation  
Precipitation 0.72 in - - ()
Sea Level Pressure  
Sea Level Pressure 29.80 in    
Wind  
Wind Speed 6 mph (SE)    
Max Wind Speed 13 mph    
Max Gust Speed 21 mph    
Visibility 7 miles    
Events Rain    
Averages and records for this station are not official NWS values.
T = Trace of Precipitation, MM = Missing Value Source: NWS Daily Summary

Daily Weather History Graph

Daily Weather History Graph

Search for Another Location

Airport or City:

Astronomy

Jun. 13, 2019 Rise Set
Actual Time 5:35 AM EDT 8:39 PM EDT
Civil Twilight 5:01 AM EDT 9:13 PM EDT
Nautical Twilight 4:19 AM EDT 9:55 PM EDT
Astronomical Twilight 3:29 AM EDT 10:46 PM EDT
Moon 4:50 PM EDT (6/13) 3:21 AM EDT (6/13)
Length of Visible Light 16h 11m
Length of Day
15h 04m
Waxing Gibbous, 85% of the Moon is Illuminated
Jun 13
Waxing Gibbous
Jun 17
Full
Jun 25
Last Quarter
Jul 2
New
Jul 9
First Quarter

Hourly Weather History & Observations

Time (EDT) Temp. Dew Point Humidity Pressure Visibility Wind Dir Wind Speed Gust Speed Precip Events Conditions
12:53 AM 64.9 °F 51.1 °F 61% 29.98 in 10.0 mi SE 10.4 mph - N/A   Scattered Clouds
1:53 AM 64.0 °F 52.0 °F 65% 29.94 in 10.0 mi ESE 10.4 mph - N/A   Overcast
2:22 AM 61.0 °F 54.0 °F 78% 29.94 in 7.0 mi SE 9.2 mph - 0.00 in Rain Light Rain
2:53 AM 60.1 °F 55.9 °F 86% 29.92 in 10.0 mi Calm Calm - 0.00 in   Overcast
3:53 AM 59.0 °F 55.9 °F 90% 29.88 in 8.0 mi East 3.5 mph - 0.03 in   Overcast
4:53 AM 60.1 °F 57.0 °F 90% 29.85 in 8.0 mi ENE 5.8 mph - 0.02 in Rain Light Rain
5:03 AM 60.1 °F 57.0 °F 90% 29.85 in 8.0 mi East 3.5 mph - 0.01 in Rain Light Rain
5:12 AM 60.1 °F 57.0 °F 90% 29.85 in 8.0 mi East 3.5 mph - 0.02 in Rain Light Rain
5:53 AM 61.0 °F 55.9 °F 83% 29.85 in 10.0 mi SSE 10.4 mph - 0.02 in   Overcast
6:53 AM 60.1 °F 55.0 °F 83% 29.85 in 10.0 mi ESE 5.8 mph - 0.01 in   Overcast
7:53 AM 59.0 °F 54.0 °F 83% 29.84 in 10.0 mi Calm Calm - N/A   Overcast
8:53 AM 59.0 °F 54.0 °F 83% 29.83 in 10.0 mi ESE 4.6 mph - 0.00 in   Overcast
9:53 AM 57.9 °F 52.0 °F 81% 29.82 in 10.0 mi SSE 11.5 mph - N/A   Overcast
10:53 AM 60.1 °F 53.1 °F 78% 29.81 in 10.0 mi SE 4.6 mph - N/A   Overcast
11:53 AM 60.1 °F 53.1 °F 78% 29.79 in 10.0 mi South 4.6 mph - N/A   Overcast
12:27 PM 59.0 °F 54.0 °F 83% 29.80 in 1.8 mi SW 3.5 mph - 0.05 in Rain Heavy Rain
12:44 PM 59.0 °F 55.9 °F 90% 29.79 in 2.0 mi WNW 3.5 mph - 0.10 in Rain Light Rain
12:53 PM 59.0 °F 55.9 °F 90% 29.79 in 2.0 mi Variable 3.5 mph - 0.12 in Rain Light Rain
1:03 PM 57.9 °F 55.9 °F 93% 29.80 in 3.0 mi Calm Calm - 0.01 in Rain Light Rain
1:07 PM 57.9 °F 55.9 °F 93% 29.80 in 1.8 mi Variable 3.5 mph - 0.03 in Rain Rain
1:31 PM 57.9 °F 55.9 °F 93% 29.80 in 1.5 mi WNW 5.8 mph - 0.10 in Rain Rain
1:47 PM 59.0 °F 55.4 °F 88% 29.78 in 2.0 mi Calm Calm - 0.14 in Rain Light Rain
1:48 PM 57.9 °F 55.9 °F 93% 29.78 in 2.0 mi ESE 3.5 mph - 0.14 in Rain Light Rain
1:57 PM 57.9 °F 55.9 °F 93% 29.78 in 5.0 mi SE 4.6 mph - 0.00 in   Overcast
2:18 PM 57.9 °F 55.9 °F 93% 29.76 in 2.0 mi ESE 9.2 mph - 0.01 in Rain Light Rain
2:28 PM 59.0 °F 57.0 °F 93% 29.75 in 6.0 mi SE 5.8 mph - 0.01 in Rain Light Rain
2:53 PM 60.1 °F 57.0 °F 90% 29.77 in 10.0 mi Variable 3.5 mph - 0.01 in   Overcast
3:01 PM 60.1 °F 57.0 °F 90% 29.76 in 10.0 mi South 3.5 mph - N/A   Overcast
3:53 PM 62.1 °F 57.0 °F 84% 29.74 in 10.0 mi South 4.6 mph - N/A   Overcast
4:53 PM 63.0 °F 57.9 °F 84% 29.73 in 10.0 mi Variable 3.5 mph - N/A   Overcast
5:50 PM 64.4 °F 57.2 °F 77% 29.73 in 10.0 mi SSE 4.6 mph - N/A   Scattered Clouds
5:53 PM 64.0 °F 57.9 °F 80% 29.73 in 10.0 mi South 3.5 mph - N/A   Scattered Clouds
6:09 PM 64.0 °F 57.9 °F 80% 29.72 in 10.0 mi Calm Calm - N/A   Mostly Cloudy
6:53 PM 63.0 °F 59.0 °F 87% 29.70 in 8.0 mi East 5.8 mph - 0.01 in Rain Light Rain
7:03 PM 62.1 °F 59.0 °F 90% 29.73 in 1.0 mi West 5.8 mph 20.7 mph 0.16 in Rain Rain
7:15 PM 60.1 °F 57.9 °F 93% 29.73 in 1.8 mi Variable 3.5 mph - 0.27 in Rain Light Rain
7:22 PM 61.0 °F 57.9 °F 90% 29.73 in 10.0 mi WNW 3.5 mph - 0.27 in   Scattered Clouds
7:45 PM 60.1 °F 57.0 °F 90% 29.76 in 1.8 mi NW 12.7 mph 18.4 mph 0.35 in Rain Heavy Rain
7:51 PM 60.8 °F 55.4 °F 82% 29.76 in 3.0 mi NW 5.8 mph - 0.35 in Rain Light Rain
7:53 PM 60.1 °F 55.9 °F 86% 29.76 in 6.0 mi NNW 5.8 mph - 0.35 in Rain Light Rain
8:53 PM 57.9 °F 55.9 °F 93% 29.76 in 10.0 mi Calm Calm - 0.01 in   Partly Cloudy
9:53 PM 57.0 °F 55.9 °F 96% 29.79 in 10.0 mi Calm Calm - N/A   Clear
10:53 PM 55.0 °F 54.0 °F 96% 29.79 in 10.0 mi Calm Calm - N/A   Partly Cloudy
11:53 PM 55.0 °F 54.0 °F 96% 29.80 in 10.0 mi Calm Calm - N/A   Clear